Location: Im Fang
(46.6019°N, 7.2397°E)
Time: 05:30:20
(UTC+00:00)

Cosmos 2026 Rocket - Pass Details

Date: 08 December 2019
Orbit: 940 x 1000 km, 82.9° (Epoch: 18 January)

Event Time Altitude Azimuth Distance (km) Brightness Sun altitude
Rises 05:19:00 0° 349° (N) 3,636 6.7 -16.9°
Reaches altitude 10° 05:21:30 10° 347° (NNW) 2,693 6.0 -16.5°
Maximum altitude 05:27:37 71° 265° (W) 1,022 3.9 -15.5°
Drops below altitude 10° 05:33:47 10° 183° (S) 2,716 6.5 -14.5°
Sets 05:36:19 0° 181° (S) 3,668 7.2 -14.0°
